Weather in Anga

Russia / Irkutsk Oblast     53°59′00″N   106°11′09″E
temp.,
°C
wind,
m/s
gust,
m/s
humid.,
%
clouds,
%
prec.,
mm/h
press.,
hPa
HPBL,
m
18 september, sat
sat1823:00+4ne236462 0.0 101837
02:00+3ne227219 0.0 101813
05:00+2ene117752 0.0 101816
08:00+5e116455 0.0 1018105
11:00+11ese12400 0.0 1015490
14:00+16se22350 0.0 1012840
17:00+17ese12355 0.0 1011917
20:00+10ene22575 0.0 101315
19 september, sun
sun1923:00+7ene227293 0.0 101411
02:00+6ene118099 0.0 101411
05:00+5ene1181100 0.0 101410
08:00+7ene11665 0.0 101454
11:00+15sse124121 0.0 1012416
14:00+19ssw23378 0.0 1010856
17:00+20ssw13395 0.0 10091188
20:00+13ese11635 0.0 101010
20 september, mon
mon2023:00+10sse11785 0.0 101010
02:00+8ese11855 0.0 100910
05:00+7e11875 0.0 100910
08:00+9e11785 0.0 100857
11:00+17se24505 0.0 1004499
14:00+23sse47345 0.0 10001875
17:00+22s573970 0.0 9991200
20:00+13ese22747 0.2 100014
21 september, tue
tue2123:00+11wnw128589 1.0 100231
02:00+8nw51186100 1.8 1007784
05:00+6nw3888100 5.1 1010811
08:00+6nw4785100 5.2 1011911
11:00+6nnw6769100 0.0 1012950
14:00+9nnw5649100 0.0 10111271
17:00+10nnw464298 0.0 10111750
20:00+5n34645 0.0 101363
22 september, wed
wed2223:00+3nne22750 0.0 101519
02:00+1ne228649 0.0 101618
05:00+1ne2291100 0.0 101627
08:00+2nne1284100 0.0 1017113
11:00+7ne3457100 0.0 1015712
14:00+10ne2239100 0.0 10141387
17:00+10nw2239100 0.0 10141726
20:00+4nnw5887100 0.0 1019408